This demonstration page uses our WeatherBlox Daily Observations layout. Learn more.

Left ArrowRight Arrow

Hourly Observations for October 20, 2021

Temp ( °F °C ) Dew Point ( °F °C ) Humidity (%) Winds ( mph kmh ) Pressure ( in mb ) Visibility ( mi km ) Precip ( " mm )
12:53 am 00:53 Clear 61 16.1 55 12.8 81 81 S 5 7 29.79 1009 10 16 N/A
1:53 am 01:53 Clear 54 12.2 52 11.1 93 93 N N/A 29.81 1010 10 16 N/A
2:53 am 02:53 Clear 55 12.8 52 11.1 90 90 N 15 24 29.82 1010 10 16 N/A
3:27 am 03:27 Partly Cloudy 52 11.1 50 10 93 93 NNW 12 19 29.87 1011 10 16 N/A
3:41 am 03:41 Mostly Cloudy 52 11.1 49 9.4 89 89 NW 16 26 29.90 1013 10 16 N/A
3:53 am 03:53 Cloudy 51 10.6 49 9.4 92 92 NW 14 22 29.88 1012 10 16 N/A
4:53 am 04:53 Cloudy 50 10 47 8.3 89 89 WNW 21 33 29.92 1013 10 16 N/A
5:53 am 05:53 Cloudy 48 8.9 45 7.2 89 89 NW 21 33 29.95 1014 10 16 N/A
6:53 am 06:53 Cloudy 47 8.3 43 6.1 86 86 NW 17 28 29.97 1015 10 16 N/A
7:27 am 07:27 Cloudy 47 8.3 42 5.6 83 83 NW 15 24 30.01 1016 10 16 N/A
7:53 am 07:53 Cloudy 46 7.8 42 5.6 86 86 WNW 16 26 30.00 1016 10 16 N/A
8:53 am 08:53 Mostly Cloudy 46 7.8 40 4.4 79 79 NW 20 31 30.03 1017 10 16 N/A
9:06 am 09:06 Cloudy 46 7.8 40 4.4 79 79 NW 25 41 30.06 1018 10 16 N/A
9:53 am 09:53 Cloudy 47 8.3 39 3.9 74 74 NW 18 30 30.04 1017 10 16 N/A
10:53 am 10:53 Cloudy 47 8.3 38 3.3 71 71 NW 20 31 30.07 1018 10 16 N/A
11:53 am 11:53 Cloudy 49 9.4 38 3.3 66 66 WNW 21 33 30.07 1018 10 16 N/A
12:03 pm 12:03 Cloudy 50 10 38 3.3 63 63 WNW 23 37 30.09 1019 10 16 N/A
12:53 pm 12:53 Cloudy 51 10.6 37 2.8 59 59 NW 23 37 30.08 1019 10 16 N/A
1:22 pm 13:22 Cloudy 50 10 37 2.8 61 61 NW 21 33 30.10 1019 10 16 N/A
1:30 pm 13:30 Cloudy 52 11 37 3 58 58 NW 21 33 30.09 1019 10 16 N/A
1:53 pm 13:53 Cloudy 50 10 37 2.8 61 61 NW 22 35 30.10 1019 10 16 N/A
2:53 pm 14:53 Cloudy 53 11.7 37 2.8 55 55 WNW 20 31 30.07 1018 10 16 N/A
3:53 pm 15:53 Cloudy 54 12.2 36 2.2 51 51 WNW 18 30 30.07 1018 10 16 N/A
4:53 pm 16:53 Cloudy 52 11.1 35 1.7 53 53 NW 18 30 30.09 1019 10 16 N/A
5:53 pm 17:53 Cloudy 50 10 35 1.7 57 57 NW 16 26 30.11 1020 10 16 N/A
6:53 pm 18:53 Cloudy 49 9.4 35 1.7 59 59 NW 15 24 30.12 1020 10 16 N/A
7:53 pm 19:53 Mostly Cloudy 46 7.8 34 1.1 63 63 NW 15 24 30.14 1021 10 16 N/A
8:53 pm 20:53 Mostly Cloudy 45 7.2 34 1.1 66 66 NW 13 20 30.15 1021 10 16 N/A
9:53 pm 21:53 Partly Cloudy 43 6.1 34 1.1 71 71 NW 12 19 30.17 1022 10 16 N/A
10:53 pm 22:53 Mostly Cloudy 42 5.6 33 0.6 71 71 NW 13 20 30.17 1022 10 16 N/A
11:00 pm 23:00 Partly Cloudy 41 5 34 1 76 76 NW 14 22 30.20 1023 10 16 N/A
11:53 pm 23:53 Clear 38 3.3 32 undefined 79 79 W 8 13 30.18 1022 10 16 N/A

Powered by AerisWeather